Погода в Борке

Россия / Костромская область     58°21′06″N   41°37′37″E
темп.,
°C
ветер,
м/с
пор.,
м/с
влажн.,
%
обл.,
%
осадки,
мм/ч
давл.,
гПа
погр.,
м
21 января, пт
пт2100:00−5ю61391100 0.1 1002663
03:00−7ю61391100 0.2 1003540
06:00−8ю51293100 0.1 1003499
09:00−9ююв51294100 0.7 1004488
12:00−8ююв51194100 0.5 1004539
15:00−7юв51194100 1.1 1004609
18:00−8юв61292100 0.4 1004656
21:00−8юв5129199 0.7 1004625
22 января, сб
сб2200:00−8юв5129192 0.0 1006469
03:00−8вюв4119292 0.1 1007462
06:00−8вюв51194100 0.4 1008574
09:00−8юв4119396 0.6 1010402
12:00−7юв41093100 0.1 1013436
15:00−7вюв4993100 0.1 1014436
18:00−7юв5989100 0.1 1017508
21:00−9вюв389587 0.1 1019270
23 января, вс
вс2300:00−13в259998 0.0 102170
03:00−10в2696100 0.3 1022188
06:00−10в2496100 0.2 1024137
09:00−10в2396100 0.6 1026138
12:00−8вюв129299 0.2 1028200
15:00−8в119467 0.3 103083
18:00−15вюв1110084 0.0 10339
21:00−17юв1110099 0.1 10359
24 января, пн
пн2400:00−19ююв11100100 0.0 10379
03:00−20ююв11100100 0.0 10389
06:00−20зюз00100100 0.0 10389
09:00−20юв2210095 0.1 103918
12:00−10ююв239367 0.0 1037146
15:00−10ююв119737 0.0 103610
18:00−17ююв2210085 0.0 103610
21:00−18юв22100100 0.0 103520
25 января, вт
вт2500:00−14ююв249995 0.1 103355
03:00−14ююв259870 0.1 103178
06:00−18ююв259821 0.0 103070
09:00−17ююв3797100 0.0 1028115
12:00−11ю3892100 0.0 1027221
15:00−10ююв3793100 0.0 1026257
18:00−10ююв3994100 0.0 1025285
21:00−11ююв3896100 0.0 1026214